Cedar Rapids, IA

3:09 PM CDT on June 26, 2017 (GMT -0500)
The Eastern Iowa Airport

Weather History for KCID - June, 2013

Change the Weather History Date:

Sunday, June 9, 2013

  Actual Average Record
Temperature  
Mean Temperature 64 °F 68 °F  
Max Temperature 70 °F 79 °F 102 °F (1911)
Min Temperature 57 °F 57 °F 41 °F (1913)
Degree Days  
Heating Degree Days 1 1  
Month to date heating degree days 28 17  
Since 1 June heating degree days 28 17  
Since 1 July heating degree days 6997 6854  
Cooling Degree Days 0 4  
Month to date cooling degree days 0 32  
Year to date cooling degree days 74 81  
Since 1 June cooling degree days 0 32  
Growing Degree Days 14 (Base 50)    
Moisture  
Dew Point 59 °F    
Average Humidity 80    
Maximum Humidity 100    
Minimum Humidity 59    
Precipitation  
Precipitation 0.19 in 0.15 in 1.08 in (2011)
Month to date precipitation 0.84 1.38  
Year to date precipitation 21.03 12.82  
Sea Level Pressure  
Sea Level Pressure 29.78 in    
Wind  
Wind Speed 9 mph (SE)    
Max Wind Speed 17 mph    
Max Gust Speed 17 mph    
Visibility 9 miles    
Events Rain    
T = Trace of Precipitation, MM = Missing Value Source: NWS Daily Summary

Daily Weather History Graph

Daily Weather History Graph

Search for Another Location

Airport or City:

Trip Planner

Search our weather history database for the weather conditions in past years. The results will help you decide how hot, cold, wet, or windy it might be!

Date:

Astronomy

Jun. 09, 2013 Rise Set
Actual Time 5:31 AM CDT 8:41 PM CDT
Civil Twilight 4:57 AM CDT 9:15 PM CDT
Nautical Twilight 4:13 AM CDT 9:58 PM CDT
Astronomical Twilight 3:21 AM CDT 10:51 PM CDT
Moon 6:29 AM CDT (6/9) 9:26 PM CDT (6/9)
Length of Visible Light 16h 17m
Length of Day
15h 09m
New Moon, 1% of the Moon is Illuminated
Jun 9
New Moon
Jun 16
First Quarter
Jun 23
Full
Jun 29
Last Quarter
Jul 8
New

Hourly Weather History & Observations

Time (CDT) Temp. Dew Point Humidity Pressure Visibility Wind Dir Wind Speed Gust Speed Precip Events Conditions
12:52 AM 68.0 °F 54.0 °F 61% 29.86 in 10.0 mi SE 11.5 mph - N/A   Scattered Clouds
1:52 AM 66.9 °F 54.0 °F 63% 29.85 in 10.0 mi SE 10.4 mph - N/A   Overcast
2:52 AM 66.0 °F 53.1 °F 63% 29.83 in 10.0 mi SE 13.8 mph 20.7 mph N/A   Mostly Cloudy
3:52 AM 66.9 °F 53.1 °F 61% 29.81 in 10.0 mi SE 11.5 mph 20.7 mph N/A   Overcast
4:52 AM 66.0 °F 54.0 °F 65% 29.79 in 10.0 mi SE 12.7 mph 19.6 mph N/A   Overcast
5:52 AM 66.0 °F 55.0 °F 68% 29.79 in 10.0 mi SE 11.5 mph 18.4 mph N/A   Overcast
6:52 AM 64.9 °F 55.9 °F 73% 29.80 in 10.0 mi SSE 9.2 mph 17.3 mph N/A   Overcast
7:52 AM 66.0 °F 57.9 °F 75% 29.79 in 10.0 mi SSE 10.4 mph - 0.00 in   Overcast
8:52 AM 64.9 °F 59.0 °F 81% 29.81 in 8.0 mi South 9.2 mph - 0.00 in Rain Light Rain
9:52 AM 63.0 °F 60.1 °F 90% 29.81 in 6.0 mi SSE 11.5 mph 18.4 mph 0.05 in Rain Light Rain
10:52 AM 64.9 °F 62.1 °F 90% 29.81 in 9.0 mi SSE 8.1 mph - 0.00 in   Overcast
11:52 AM 66.0 °F 62.1 °F 87% 29.79 in 9.0 mi SSE 8.1 mph - N/A   Mostly Cloudy
12:24 PM 66.2 °F 62.6 °F 88% 29.80 in 10.0 mi SE 10.4 mph - N/A   Overcast
12:52 PM 66.0 °F 62.1 °F 87% 29.79 in 10.0 mi SSE 8.1 mph - N/A   Overcast
1:07 PM 66.2 °F 62.6 °F 88% 29.80 in 10.0 mi South 10.4 mph - N/A   Overcast
1:52 PM 66.9 °F 61.0 °F 81% 29.79 in 8.0 mi SSE 12.7 mph - 0.00 in Rain Light Rain
2:52 PM 66.0 °F 60.1 °F 81% 29.78 in 10.0 mi SSE 11.5 mph 19.6 mph 0.00 in   Overcast
3:52 PM 66.9 °F 61.0 °F 81% 29.75 in 10.0 mi ESE 10.4 mph - N/A   Overcast
4:52 PM 68.0 °F 60.1 °F 76% 29.74 in 10.0 mi SSE 12.7 mph 18.4 mph N/A   Mostly Cloudy
5:06 PM 68.0 °F 60.8 °F 78% 29.76 in 10.0 mi SSE 12.7 mph - N/A   Mostly Cloudy
5:52 PM 68.0 °F 60.1 °F 76% 29.73 in 10.0 mi SSE 12.7 mph 19.6 mph N/A   Scattered Clouds
6:52 PM 68.0 °F 61.0 °F 78% 29.73 in 10.0 mi SE 11.5 mph - N/A   Mostly Cloudy
7:52 PM 66.9 °F 61.0 °F 81% 29.72 in 10.0 mi ESE 9.2 mph - N/A   Scattered Clouds
8:33 PM 64.4 °F 57.2 °F 77% 29.74 in 10.0 mi WSW 5.8 mph - N/A   Mostly Cloudy
8:52 PM 63.0 °F 57.0 °F 81% 29.74 in 10.0 mi Calm Calm - N/A   Overcast
9:42 PM 60.8 °F 59.0 °F 94% 29.76 in 3.0 mi SE 3.5 mph - 0.14 in Rain Rain
9:52 PM 61.0 °F 59.0 °F 93% 29.75 in 3.0 mi SSE 3.5 mph - 0.14 in Rain Light Rain
10:52 PM 60.1 °F 57.9 °F 93% 29.76 in 10.0 mi Calm Calm - 0.00 in   Clear
11:52 PM 57.9 °F 57.0 °F 97% 29.76 in 10.0 mi ESE 3.5 mph - N/A   Clear